User: anonymous   Login
Location: Plymouth
(43.7570°N, 71.6890°W)
Time: 18:14:20
(UTC-04:00)
Language:

COSMOS 2406 - Orbit

View from above orbital plane
View from above orbital plane
View from above satellite
View from above satellite

Ground track
Ground track

The orbit data is extracted from the following two-line orbital elements,

1 28352U 04021A   17289.20988535 -.00000226  00000-0 -98307-4 0  9997
2 28352  71.0019 232.0032 0015538 278.1369  81.7990 14.11623399687925
Epoch (UTC): 16 October 2017 05:02:14
Eccentricity: 0.0015538
inclination: 71.0019°
perigee height: 842 km
apogee height: 865 km
right ascension of ascending node: 232.0032°
argument of perigee: 278.1369°
revolutions per day: 14.11623399
mean anomaly at epoch: 81.7990°
orbit number at epoch: 68792

The dashed part of the orbit path shows where the satellite is in the earth's shadow,  

DLR